This demonstration page uses our WeatherBlox Daily Observations layout. Learn more.

Left ArrowRight Arrow

Hourly Observations for June 14, 2015

Temp ( °F °C ) Dew Point ( °F °C ) Humidity (%) Winds ( mph kmh ) Pressure ( in mb ) Visibility ( mi km ) Precip ( " mm )
12:59 am 00:59 Partly Cloudy 83 28.3 76 24.4 79 79 Calm 30.02 1017 10 16 0.00 0.00
1:59 am 01:59 Partly Cloudy 83 28.3 77 25 82 82 Calm 30.02 1017 8 13 0.00 0.00
2:59 am 02:59 Partly Cloudy 83 28.3 76 24.4 79 79 Calm 30.01 1016 8 13 0.00 0.00
3:59 am 03:59 Mostly Cloudy with Haze 83 28.3 76 24.4 79 79 Calm 30.01 1016 6 10 0.00 0.00
4:59 am 04:59 Mostly Cloudy with Haze 83 28.3 76 24.4 79 79 Calm 30.01 1016 6 10 0.00 0.00
5:59 am 05:59 Mostly Cloudy 83 28.3 76 24.4 79 79 N 6 9 30.03 1017 10 16 0.00 0.00
6:59 am 06:59 Mostly Cloudy 84 28.9 77 25 80 80 NNE 5 7 30.04 1017 7 11 0.00 0.00
7:59 am 07:59 Mostly Cloudy 85 29.4 78 25.6 80 80 NE 7 11 30.05 1018 7 11 0.00 0.00
8:59 am 08:59 Mostly Cloudy 85 29.4 72 22.2 65 65 E 6 9 30.07 1018 10 16 0.00 0.00
9:59 am 09:59 Mostly Cloudy 88 31.1 74 23.3 63 63 E 9 15 30.06 1018 10 16 0.00 0.00
10:59 am 10:59 Mostly Sunny 89 31.7 71 21.7 55 55 NE 8 13 30.07 1018 10 16 0.00 0.00
11:59 am 11:59 Partly Cloudy 90 32.2 72 22.2 56 56 ENE 10 17 30.08 1019 10 16 0.00 0.00
12:59 pm 12:59 Mostly Sunny 91 32.8 73 22.8 56 56 ENE 8 13 30.07 1018 10 16 0.00 0.00
1:59 pm 13:59 Partly Cloudy 91 32.8 73 22.8 56 56 ENE 12 19 30.06 1018 10 16 0.00 0.00
2:59 pm 14:59 Partly Cloudy 91 32.8 73 22.8 56 56 ENE 12 19 30.04 1017 10 16 0.00 0.00
3:59 pm 15:59 Mostly Cloudy 91 32.8 72 22.2 54 54 ENE 14 22 30.04 1017 10 16 0.00 0.00
4:59 pm 16:59 Mostly Cloudy 93 33.9 74 23.3 54 54 VRB 7 11 30.03 1017 10 16 0.00 0.00
5:59 pm 17:59 Mostly Cloudy 94 34.4 73 22.8 51 51 S 7 11 30.02 1017 10 16 0.00 0.00
6:17 pm 18:17 Mostly Cloudy with Thunderstorms 91 32.8 72 22.2 54 54 SSE 9 15 30.03 1017 10 16 0.00 0.00
6:59 pm 18:59 Mostly Cloudy with Thunderstorms 90 32.2 75 23.9 62 62 SSW 8 13 30.04 1017 9 14 0.00 0.00
7:07 pm 19:07 Mostly Cloudy 89 31.7 76 24.4 65 65 SW 9 15 30.03 1017 9 14 0.00 0.00
7:59 pm 19:59 Mostly Cloudy 87 30.6 75 23.9 67 67 SSW 3 6 30.03 1017 9 14 0.00 0.00
8:59 pm 20:59 Mostly Cloudy 86 30 75 23.9 70 70 WSW 3 6 30.03 1017 10 16 0.00 0.00
9:59 pm 21:59 Mostly Cloudy 86 30 76 24.4 72 72 SSW 5 7 30.04 1017 9 14 0.00 0.00
10:59 pm 22:59 Mostly Cloudy with Light Rain 82 27.8 76 24.4 82 82 W 3 6 30.06 1018 10 16 0.02 0.51
11:59 pm 23:59 Mostly Cloudy 83 28.3 76 24.4 79 79 Calm 30.06 1018 9 14 0.00 0.03

Powered by AerisWeather